Satellite-Ground Cal/Val Region Overpasses Predictions

Prediction of Satellite NPP Overpassing Cal/Val Region: PacNW

Region Location: (Latitude: 10.00, Longitude: 139.50) to (Latitude: 22.70, Longitude: 165.60).

Table of predicted overpasses for the next 14.0 days since TLE Epoch: 8/6/2022
Interval Starting Time Starting Location Ending Time Ending Location
1 08/06/2022 14:46:27 ( 22.69, 163.40) 08/06/2022 14:50:03 ( 10.01, 160.38)
2 08/07/2022 03:37:03 ( 10.03, 145.54) 08/07/2022 03:40:38 ( 22.65, 142.54)
3 08/07/2022 14:30:29 ( 11.97, 165.59) 08/07/2022 14:31:02 ( 10.03, 165.14)
4 08/07/2022 16:08:57 ( 22.65, 142.77) 08/07/2022 16:12:32 ( 10.03, 139.77)
5 08/08/2022 03:18:01 ( 10.01, 150.30) 08/08/2022 03:21:37 ( 22.69, 147.28)
6 08/08/2022 15:49:55 ( 22.67, 147.53) 08/08/2022 15:53:30 ( 10.05, 144.53)
7 08/09/2022 02:59:01 ( 10.05, 155.05) 08/09/2022 03:02:36 ( 22.67, 152.04)
8 08/09/2022 15:30:54 ( 22.69, 152.29) 08/09/2022 15:34:30 ( 10.01, 149.27)
9 08/10/2022 02:39:59 ( 10.03, 159.81) 08/10/2022 02:43:34 ( 22.65, 156.80)
10 08/10/2022 15:11:53 ( 22.65, 157.04) 08/10/2022 15:15:28 ( 10.03, 154.03)
11 08/11/2022 02:20:58 ( 10.01, 164.57) 08/11/2022 02:24:34 ( 22.69, 161.55)
12 08/11/2022 14:52:52 ( 22.67, 161.80) 08/11/2022 14:56:27 ( 10.05, 158.79)
13 08/12/2022 03:43:27 ( 10.05, 143.94) 08/12/2022 03:47:02 ( 22.67, 140.93)
14 08/12/2022 14:34:57 ( 18.76, 165.59) 08/12/2022 14:37:26 ( 10.01, 163.54)
15 08/12/2022 16:15:20 ( 22.69, 141.18) 08/12/2022 16:17:17 ( 15.82, 139.51)
16 08/13/2022 03:24:26 ( 10.03, 148.70) 08/13/2022 03:28:01 ( 22.66, 145.69)
17 08/13/2022 15:56:20 ( 22.64, 145.93) 08/13/2022 15:59:55 ( 10.02, 142.92)
18 08/14/2022 03:05:25 ( 10.02, 153.45) 08/14/2022 03:09:01 ( 22.70, 150.44)
19 08/14/2022 15:37:18 ( 22.66, 150.69) 08/14/2022 15:40:53 ( 10.04, 147.68)
20 08/15/2022 02:46:24 ( 10.06, 158.20) 08/15/2022 02:49:59 ( 22.68, 155.20)
21 08/15/2022 15:18:17 ( 22.68, 155.44) 08/15/2022 15:21:53 ( 10.00, 152.43)
22 08/16/2022 02:27:23 ( 10.04, 162.96) 08/16/2022 02:30:58 ( 22.67, 159.96)
23 08/16/2022 14:59:15 ( 22.70, 160.20) 08/16/2022 15:02:51 ( 10.02, 157.19)
24 08/17/2022 02:10:55 ( 19.07, 165.60) 08/17/2022 02:11:56 ( 22.65, 164.71)
25 08/17/2022 03:49:51 ( 10.03, 142.34) 08/17/2022 03:53:15 ( 22.01, 139.50)
26 08/17/2022 14:40:15 ( 22.65, 164.95) 08/17/2022 14:43:50 ( 10.03, 161.95)
27 08/17/2022 16:21:45 ( 22.65, 139.57) 08/17/2022 16:21:50 ( 22.36, 139.50)
28 08/18/2022 03:30:50 ( 10.01, 147.10) 08/18/2022 03:34:26 ( 22.70, 144.08)
29 08/18/2022 16:02:43 ( 22.67, 144.33) 08/18/2022 16:06:18 ( 10.05, 141.33)
30 08/19/2022 03:11:49 ( 10.06, 151.85) 08/19/2022 03:15:24 ( 22.68, 148.84)
31 08/19/2022 15:43:42 ( 22.68, 149.09) 08/19/2022 15:47:18 ( 10.00, 146.08)
